Skip Page Navigation
NASA JPL Caltech
NASA Logo - Jet Propulsion Laboratory + View the NASA Portal
+ Center for Near-Earth Object Studies
JPL Home Earth Solar System Stars & Galaxies Technology
JPL Solar System Dynamics
BODIES ORBITS EPHEMERIDES TOOLS PHYSICAL DATA DISCOVERY FAQ SITE MAP
IMPORTANT: The SSD Announcement email list is now available. Major changes are coming in the near future, including possible hostname and/or URL changes. To be notified of such changes, subscribe to this email list.

Please visit this page for more details.


JPL Small-Body Database Browser
Search: [ help ]  
447484 (2006 RU32)
Classification: Main-belt Asteroid          SPK-ID: 2447484
Ephemeris | Orbit Diagram | Orbital Elements | Mission Design | Physical Parameters | Discovery Circumstances | Close-Approach Data ]

[ show orbit diagram ]
Orbital Elements at Epoch 2458600.5 (2019-Apr-27.0) TDB
Reference: JPL 12 (heliocentric ecliptic J2000)
 Element Value Uncertainty (1-sigma)   Units 
e .2128524955298048 1.0987e-07  
a 2.734573412620227 5.2719e-08 au
q 2.152512637534557 3.1302e-07 au
i 11.94520697432749 4.3157e-05 deg
node 207.3656520687423 3.3042e-05 deg
peri 83.15447330342769 0.00044586 deg
M 343.6269058211823 0.00038507 deg
tp 2458675.620949132436
(2019-Jul-11.12094913)
0.0017674 TDB
period 1651.706231719097
4.52
4.7764e-05
1.308e-07
d
yr
n .2179564338298292 6.3028e-09 deg/d
Q 3.316634187705898 6.394e-08 au
  Orbit Determination Parameters
   # obs. used (total)      65  
   data-arc span      3838 days (10.51 yr)  
   first obs. used      2005-04-30  
   last obs. used      2015-11-02  
   planetary ephem.      DE431  
   SB-pert. ephem.      SB431-N16  
   condition code      1  
   norm. resid. RMS      .57353  
   source      ORB  
   producer      Otto Matic  
   solution date      2017-Apr-09 11:39:02  

Additional Information
 Earth MOID = 1.17575 au 
 Jupiter MOID = 1.99879 au 
 T_jup = 3.289 
[ show covariance matrix ]

Ephemeris | Orbit Diagram | Orbital Elements | Mission Design | Physical Parameters | Discovery Circumstances | Close-Approach Data ]

Physical Parameter Table
Parameter Symbol Value Units Sigma Reference Notes
absolute magnitude H 17.7   n/a MPO357073  

447484 (2006 RU32)          Discovered 2006-Sep-15 by Spacewatch at Kitt Peak
Reference: Last Updated: 2015-10-28

[ show close-approach data ]
Ephemeris | Orbit Diagram | Orbital Elements | Mission Design | Physical Parameters | Discovery Circumstances | Close-Approach Data ]
ABOUT SSD CREDITS/AWARDS PRIVACY/COPYRIGHT GLOSSARY LINKS
FirstGov
(server date/time)  
NASA Home Page
Site Manager:   Ryan S. Park
Webmaster  Alan B. Chamberlin